Regional Weather Roundup
Issued by NWS

Home | Current Version | Previous Version | Text Only | Print | Product List | Glossary Off
Versions: 1 2 3 4 5 6 7 8 9 10 11 12 13 14 15 16 17 18 19 20 21 22 23 24 25 26 27 28 29 30 31 32 33 34 35 36 37 38 39 40 41 42 43 44 45 46 47 48 49 50

000
ASUS45 KSLC 302310
RWRUT

UTAH REGIONAL WEATHER ROUNDUP
NATIONAL WEATHER SERVICE SALT LAKE CITY UT
500 PM MDT SAT JUL 30 2016

UTZ001>011-023>025-310000-

NORTHERN UTAH

CITY           SKY/WX    TMP DP  RH WIND       PRES   REMARKS
BRIGHAM CITY     N/A     94  32  11 SW3       29.91F
HILL AFB       MOSUNNY   92  44  19 SE6       29.96F
LOGAN          PTSUNNY   92  42  17 S3        29.93F
OGDEN          PTSUNNY   94  41  16 W7        29.92F HX  90
PROVO AIRPORT  PTSUNNY   90  55  31 NW7       29.92F
SALT LAKE CITY PTSUNNY   95  41  15 CALM      29.90F HX  91
VERNAL         SUNNY     92  35  13 NW17G24   29.98R
WENDOVER       PTSUNNY   93  43  17 SW12      29.91S
HEBER CITY     CLOUDY    90  37  15 N7        30.02S

$$

UTZ012>022-026-027-310000-

SOUTHERN/CENTRAL UTAH

CITY           SKY/WX    TMP DP  RH WIND       PRES   REMARKS
BLANDING       PTSUNNY   86  43  21 N14       30.12F
BRYCE CANYON   CLOUDY    70  51  51 S3        30.25F
CEDAR CITY     PTSUNNY   93  48  21 SW13G20   30.02F THUNDER
DELTA          PTSUNNY   91  37  15 SW9G18    29.93S
MILFORD        CLOUDY    83  54  36 SW10      29.96F
MOAB/CYNLANDS  SUNNY     98  39  13 SE9       29.89F HX  93
PRICE          MOSUNNY   91  36  14 S8        30.03F
ST GEORGE      CLOUDY   102  52  18 W15G21    29.83F HX 100

$$

REGIONAL REPORTS     COLORADO/ARIZONA

CITY           SKY/WX    TMP DP  RH WIND       PRES   REMARKS
CRAIG, CO      CLOUDY    89  27  10 SW10G23   30.04F
GRAND JUNCTION SUNNY     95  34  11 NW6       29.94F HX  90
RIFLE          SUNNY     94  35  12 W8        29.99F
MONTROSE       CLOUDY    86  38  18 CALM      30.07F
CORTEZ         SUNNY     93  41  16 W14       30.02F
PAGE, AZ       CLOUDY    95  43  16 CALM      29.92F HX  91
GRAND CANYON   PTSUNNY   87  43  21 MISG      30.16F
KINGMAN        MOSUNNY   93  57  29 SW20      29.95F HX  91
FLAGSTAFF      PTSUNNY   77  49  37 E13       30.20F THUNDER

$$

REGIONAL REPORTS    NEVADA/IDAHO/WYOMING

CITY           SKY/WX    TMP DP  RH WIND       PRES   REMARKS
LAS VEGAS, NV  PTSUNNY  107  45  12 S7        29.71F HAZE    HX 102
ELY            PTSUNNY   79  42  26 W21G28    30.12F
ELKO           CLOUDY    94  38  14 CALM      29.95F
POCATELLO, ID  MOSUNNY   96  40  14 W13G21    29.88F HX  92
BURLEY         MOSUNNY   88  52  29 SW9       29.85F
EVANSTON, WY   CLOUDY    80  39  23 NE8       30.16F
ROCK SPRINGS   CLOUDY    73  46  38 SW17      30.17S
KEMMERER         N/A    N/A N/A N/A W21G26    30.18F

$$



USA.gov is the U.S. government's official web portal to all federal, state and local government web resources and services.